Location: Eekwerd
(53.3234°N, 6.7984°E)
Time: 07:50:46
(UTC+00:00)

Cosmos 1092 Rocket - Pass Details

Date: 15 May 2026
Orbit: 953 x 994 km, 83.0° (Epoch: 6 June)

Event Time Altitude Azimuth Distance (km) Brightness Sun altitude
Rises 21:32:12 0° 349° (N) 3,648 8.5 -13.4°
Reaches altitude 10° 21:34:43 10° 352° (N) 2,701 7.5 -13.5°
Maximum altitude 21:40:54 73° 77° (ENE) 1,009 4.0 -14.0°
Enters shadow 21:45:21 20° 160° (SSE) 2,071 5.1 -14.2°
